Year,Month,Day,Hour,Minute,Value (Times are PST for temperature in C)
2017,06,26,00,00,22.80
2017,06,26,00,01,22.80
2017,06,26,00,02,22.70
2017,06,26,00,03,22.70
2017,06,26,00,04,22.70
2017,06,26,00,05,22.70
2017,06,26,00,06,22.70
2017,06,26,00,07,22.70
2017,06,26,00,08,22.70
2017,06,26,00,09,22.70
2017,06,26,00,10,22.70
2017,06,26,00,11,22.70
2017,06,26,00,12,22.60
2017,06,26,00,13,22.60
2017,06,26,00,14,22.60
2017,06,26,00,15,22.60
2017,06,26,00,16,22.50
2017,06,26,00,17,22.50
2017,06,26,00,18,22.40
2017,06,26,00,19,22.40
2017,06,26,00,20,22.40
2017,06,26,00,21,22.40
2017,06,26,00,22,22.30
2017,06,26,00,23,22.30
2017,06,26,00,24,22.30
2017,06,26,00,25,22.30
2017,06,26,00,26,22.30
2017,06,26,00,27,22.20
2017,06,26,00,28,22.20
2017,06,26,00,29,22.20
2017,06,26,00,30,22.20
2017,06,26,00,31,22.20
2017,06,26,00,32,22.20
2017,06,26,00,33,22.10
2017,06,26,00,34,22.10
2017,06,26,00,35,22.10
2017,06,26,00,36,22.10
2017,06,26,00,37,22.10
2017,06,26,00,38,22.00
2017,06,26,00,39,22.00
2017,06,26,00,40,22.00
2017,06,26,00,41,21.90
2017,06,26,00,42,21.90
2017,06,26,00,43,21.90
2017,06,26,00,44,21.80
2017,06,26,00,45,21.80
2017,06,26,00,46,21.80
2017,06,26,00,47,21.80
2017,06,26,00,48,21.80
2017,06,26,00,49,21.80
2017,06,26,00,50,21.90
2017,06,26,00,51,21.90
2017,06,26,00,52,21.90
2017,06,26,00,53,21.90
2017,06,26,00,54,21.90
2017,06,26,00,55,21.90
2017,06,26,00,56,21.80
2017,06,26,00,57,21.80
2017,06,26,00,58,21.80
2017,06,26,00,59,21.80
2017,06,26,01,00,21.70
2017,06,26,01,01,21.70
2017,06,26,01,02,21.70
2017,06,26,01,03,21.70
2017,06,26,01,04,21.70
2017,06,26,01,05,21.70
2017,06,26,01,06,21.60
2017,06,26,01,07,21.60
2017,06,26,01,08,21.60
2017,06,26,01,09,21.50
2017,06,26,01,10,21.50
2017,06,26,01,11,21.40
2017,06,26,01,12,21.40
2017,06,26,01,13,21.30
2017,06,26,01,14,21.30
2017,06,26,01,15,21.20
2017,06,26,01,16,21.20
2017,06,26,01,17,21.10
2017,06,26,01,18,21.10
2017,06,26,01,19,21.00
2017,06,26,01,20,21.00
2017,06,26,01,21,20.90
2017,06,26,01,22,20.90
2017,06,26,01,23,20.90
2017,06,26,01,24,20.80
2017,06,26,01,25,20.80
2017,06,26,01,26,20.80
2017,06,26,01,27,20.80
2017,06,26,01,28,20.70
2017,06,26,01,29,20.70
2017,06,26,01,30,20.70
2017,06,26,01,31,20.70
2017,06,26,01,32,20.70
2017,06,26,01,33,20.60
2017,06,26,01,34,20.60
2017,06,26,01,35,20.60
2017,06,26,01,36,20.60
2017,06,26,01,37,20.50
2017,06,26,01,38,20.50
2017,06,26,01,39,20.50
2017,06,26,01,40,20.40
2017,06,26,01,41,20.40
2017,06,26,01,42,20.40
2017,06,26,01,43,20.40
2017,06,26,01,44,20.40
2017,06,26,01,45,20.30
2017,06,26,01,46,20.30
2017,06,26,01,47,20.30
2017,06,26,01,48,20.30
2017,06,26,01,49,20.30
2017,06,26,01,50,20.20
2017,06,26,01,51,20.20
2017,06,26,01,52,20.20
2017,06,26,01,53,20.10
2017,06,26,01,54,20.10
2017,06,26,01,55,20.10
2017,06,26,01,56,20.00
2017,06,26,01,57,20.00
2017,06,26,01,58,19.90
2017,06,26,01,59,19.90
2017,06,26,02,00,19.80
2017,06,26,02,01,19.80
2017,06,26,02,02,19.70
2017,06,26,02,03,19.70
2017,06,26,02,04,19.70
2017,06,26,02,05,19.60
2017,06,26,02,06,19.60
2017,06,26,02,07,19.50
2017,06,26,02,08,19.50
2017,06,26,02,09,19.40
2017,06,26,02,10,19.40
2017,06,26,02,11,19.40
2017,06,26,02,12,19.30
2017,06,26,02,13,19.30
2017,06,26,02,14,19.30
2017,06,26,02,15,19.30
2017,06,26,02,16,19.30
2017,06,26,02,17,19.30
2017,06,26,02,18,19.30
2017,06,26,02,19,19.30
2017,06,26,02,20,19.20
2017,06,26,02,21,19.20
2017,06,26,02,22,19.20
2017,06,26,02,23,19.20
2017,06,26,02,24,19.20
2017,06,26,02,25,19.20
2017,06,26,02,26,19.10
2017,06,26,02,27,19.10
2017,06,26,02,28,19.10
2017,06,26,02,29,19.00
2017,06,26,02,30,19.00
2017,06,26,02,31,18.90
2017,06,26,02,32,18.90
2017,06,26,02,33,18.90
2017,06,26,02,34,18.90
2017,06,26,02,35,18.80
2017,06,26,02,36,18.80
2017,06,26,02,37,18.80
2017,06,26,02,38,18.80
2017,06,26,02,39,18.80
2017,06,26,02,40,18.80
2017,06,26,02,41,18.80
2017,06,26,02,42,18.70
2017,06,26,02,43,18.70
2017,06,26,02,44,18.70
2017,06,26,02,45,18.70
2017,06,26,02,46,18.70
2017,06,26,02,47,18.70
2017,06,26,02,48,18.70
2017,06,26,02,49,18.70
2017,06,26,02,50,18.60
2017,06,26,02,51,18.60
2017,06,26,02,52,18.60
2017,06,26,02,53,18.50
2017,06,26,02,54,18.40
2017,06,26,02,55,18.40
2017,06,26,02,56,18.40
2017,06,26,02,57,18.30
2017,06,26,02,58,18.30
2017,06,26,02,59,18.30
2017,06,26,03,00,18.20
2017,06,26,03,01,18.20
2017,06,26,03,02,18.10
2017,06,26,03,03,18.10
2017,06,26,03,04,18.00
2017,06,26,03,05,18.00
2017,06,26,03,06,18.00
2017,06,26,03,07,18.00
2017,06,26,03,08,18.00
2017,06,26,03,09,18.00
2017,06,26,03,10,18.00
2017,06,26,03,11,18.00
2017,06,26,03,12,18.00
2017,06,26,03,13,17.90
2017,06,26,03,14,17.90
2017,06,26,03,15,17.90
2017,06,26,03,16,17.90
2017,06,26,03,17,17.90
2017,06,26,03,18,17.90
2017,06,26,03,19,17.90
2017,06,26,03,20,17.80
2017,06,26,03,21,17.80
2017,06,26,03,22,17.80
2017,06,26,03,23,17.80
2017,06,26,03,24,17.80
2017,06,26,03,25,17.70
2017,06,26,03,26,17.70
2017,06,26,03,27,17.70
2017,06,26,03,28,17.70
2017,06,26,03,29,17.70
2017,06,26,03,30,17.60
2017,06,26,03,31,17.60
2017,06,26,03,32,17.60
2017,06,26,03,33,17.60
2017,06,26,03,34,17.60
2017,06,26,03,35,17.50
2017,06,26,03,36,17.50
2017,06,26,03,37,17.50
2017,06,26,03,38,17.40
2017,06,26,03,39,17.40
2017,06,26,03,40,17.40
2017,06,26,03,41,17.30
2017,06,26,03,42,17.30
2017,06,26,03,43,17.30
2017,06,26,03,44,17.30
2017,06,26,03,45,17.30
2017,06,26,03,46,17.20
2017,06,26,03,47,17.20
2017,06,26,03,48,17.20
2017,06,26,03,49,17.20
2017,06,26,03,50,17.20
2017,06,26,03,51,17.20
2017,06,26,03,52,17.10
2017,06,26,03,53,17.10
2017,06,26,03,54,17.10
2017,06,26,03,55,17.10
2017,06,26,03,56,17.10
2017,06,26,03,57,17.10
2017,06,26,03,58,17.10
2017,06,26,03,59,17.10
2017,06,26,04,00,17.10
2017,06,26,04,01,17.10
2017,06,26,04,02,17.10
2017,06,26,04,03,17.00
2017,06,26,04,04,17.00
2017,06,26,04,05,17.00
2017,06,26,04,06,16.90
2017,06,26,04,07,16.90
2017,06,26,04,08,16.90
2017,06,26,04,09,16.90
2017,06,26,04,10,16.80
2017,06,26,04,11,16.80
2017,06,26,04,12,16.80
2017,06,26,04,13,16.80
2017,06,26,04,14,16.80
2017,06,26,04,15,16.70
2017,06,26,04,16,16.70
2017,06,26,04,17,16.70
2017,06,26,04,18,16.70
2017,06,26,04,19,16.70
2017,06,26,04,20,16.70
2017,06,26,04,21,16.70
2017,06,26,04,22,16.70
2017,06,26,04,23,16.70
2017,06,26,04,24,16.70
2017,06,26,04,25,16.70
2017,06,26,04,26,16.70
2017,06,26,04,27,16.70
2017,06,26,04,28,16.60
2017,06,26,04,29,16.60
2017,06,26,04,30,16.60
2017,06,26,04,31,16.60
2017,06,26,04,32,16.50
2017,06,26,04,33,16.50
2017,06,26,04,34,16.50
2017,06,26,04,35,16.50
2017,06,26,04,36,16.50
2017,06,26,04,37,16.50
2017,06,26,04,38,16.40
2017,06,26,04,39,16.40
2017,06,26,04,40,16.40
2017,06,26,04,41,16.40
2017,06,26,04,42,16.40
2017,06,26,04,43,16.40
2017,06,26,04,44,16.40
2017,06,26,04,45,16.40
2017,06,26,04,46,16.40
2017,06,26,04,47,16.40
2017,06,26,04,48,16.40
2017,06,26,04,49,16.40
2017,06,26,04,50,16.40
2017,06,26,04,51,16.40
2017,06,26,04,52,16.40
2017,06,26,04,53,16.40
2017,06,26,04,54,16.40
2017,06,26,04,55,16.40
2017,06,26,04,56,16.40
2017,06,26,04,57,16.40
2017,06,26,04,58,16.40
2017,06,26,04,59,16.40
2017,06,26,05,00,16.40
2017,06,26,05,01,16.40
2017,06,26,05,02,16.30
2017,06,26,05,03,16.30
2017,06,26,05,04,16.30
2017,06,26,05,05,16.30
2017,06,26,05,06,16.30
2017,06,26,05,07,16.30
2017,06,26,05,08,16.20
2017,06,26,05,09,16.20
2017,06,26,05,10,16.20
2017,06,26,05,11,16.20
2017,06,26,05,12,16.20
2017,06,26,05,13,16.20
2017,06,26,05,14,16.20
2017,06,26,05,15,16.20
2017,06,26,05,16,16.20
2017,06,26,05,17,16.20
2017,06,26,05,18,16.10
2017,06,26,05,19,16.10
2017,06,26,05,20,16.20
2017,06,26,05,21,16.20
2017,06,26,05,22,16.10
2017,06,26,05,23,16.10
2017,06,26,05,24,16.10
2017,06,26,05,25,16.10
2017,06,26,05,26,16.10
2017,06,26,05,27,16.10
2017,06,26,05,28,16.10
2017,06,26,05,29,16.10
2017,06,26,05,30,16.10
2017,06,26,05,31,16.10
2017,06,26,05,32,16.10
2017,06,26,05,33,16.10
2017,06,26,05,34,16.10
2017,06,26,05,35,16.10
2017,06,26,05,36,16.10
2017,06,26,05,37,16.10
2017,06,26,05,38,16.10
2017,06,26,05,39,16.10
2017,06,26,05,40,16.10
2017,06,26,05,41,16.10
2017,06,26,05,42,16.10
2017,06,26,05,43,16.10
2017,06,26,05,44,16.10
2017,06,26,05,45,16.00
2017,06,26,05,46,16.00
2017,06,26,05,47,16.00
2017,06,26,05,48,16.00
2017,06,26,05,49,16.00
2017,06,26,05,50,16.00
2017,06,26,05,51,16.00
2017,06,26,05,52,16.00
2017,06,26,05,53,16.00
2017,06,26,05,54,16.00
2017,06,26,05,55,16.00
2017,06,26,05,56,16.10
2017,06,26,05,57,16.00
2017,06,26,05,58,16.00
2017,06,26,05,59,16.00
2017,06,26,06,00,16.00
2017,06,26,06,01,15.90
2017,06,26,06,02,15.90
2017,06,26,06,03,15.90
2017,06,26,06,04,15.80
2017,06,26,06,05,15.80
2017,06,26,06,06,15.80
2017,06,26,06,07,15.80
2017,06,26,06,08,15.80
2017,06,26,06,09,15.70
2017,06,26,06,10,15.70
2017,06,26,06,11,15.70
2017,06,26,06,12,15.70
2017,06,26,06,13,15.70
2017,06,26,06,14,15.70
2017,06,26,06,15,15.70
2017,06,26,06,16,15.70
2017,06,26,06,17,15.70
2017,06,26,06,18,15.60
2017,06,26,06,19,15.60
2017,06,26,06,20,15.60
2017,06,26,06,21,15.60
2017,06,26,06,22,15.60
2017,06,26,06,23,15.60
2017,06,26,06,24,15.50
2017,06,26,06,25,15.50
2017,06,26,06,26,15.50
2017,06,26,06,27,15.40
2017,06,26,06,28,15.40
2017,06,26,06,29,15.40
2017,06,26,06,30,15.40
2017,06,26,06,31,15.30
2017,06,26,06,32,15.30
2017,06,26,06,33,15.30
2017,06,26,06,34,15.20
2017,06,26,06,35,15.20
2017,06,26,06,36,15.20
2017,06,26,06,37,15.20
2017,06,26,06,38,15.20
2017,06,26,06,39,15.20
2017,06,26,06,40,15.20
2017,06,26,06,41,15.10
2017,06,26,06,42,15.10
2017,06,26,06,43,15.10
2017,06,26,06,44,15.00
2017,06,26,06,45,15.00
2017,06,26,06,46,15.00
2017,06,26,06,47,15.00
2017,06,26,06,48,15.00
2017,06,26,06,49,15.00
2017,06,26,06,50,15.00
2017,06,26,06,51,15.00
2017,06,26,06,52,14.90
2017,06,26,06,53,14.90
2017,06,26,06,54,14.80
2017,06,26,06,55,14.80
2017,06,26,06,56,14.70
2017,06,26,06,57,14.70
2017,06,26,06,58,14.70
2017,06,26,06,59,14.70
2017,06,26,07,00,14.60
2017,06,26,07,01,14.60
2017,06,26,07,02,14.60
2017,06,26,07,03,14.60
2017,06,26,07,04,14.50
2017,06,26,07,05,14.50
2017,06,26,07,06,14.50
2017,06,26,07,07,14.50
2017,06,26,07,08,14.50
2017,06,26,07,09,14.50
2017,06,26,07,10,14.50
2017,06,26,07,11,14.50
2017,06,26,07,12,14.50
2017,06,26,07,13,14.50
2017,06,26,07,14,14.50
2017,06,26,07,15,14.50
2017,06,26,07,16,14.60
2017,06,26,07,17,14.60
2017,06,26,07,18,14.60
2017,06,26,07,19,14.50
2017,06,26,07,20,14.50
2017,06,26,07,21,14.50
2017,06,26,07,22,14.50
2017,06,26,07,23,14.50
2017,06,26,07,24,14.50
2017,06,26,07,25,14.50
2017,06,26,07,26,14.50
2017,06,26,07,27,14.50
2017,06,26,07,28,14.50
2017,06,26,07,29,14.50
2017,06,26,07,30,14.50
2017,06,26,07,31,14.50
2017,06,26,07,32,14.60
2017,06,26,07,33,14.60
2017,06,26,07,34,14.60
2017,06,26,07,35,14.60
2017,06,26,07,36,14.60
2017,06,26,07,37,14.60
2017,06,26,07,38,14.60
2017,06,26,07,39,14.70
2017,06,26,07,40,14.60
2017,06,26,07,41,14.60
2017,06,26,07,42,14.60
2017,06,26,07,43,14.70
2017,06,26,07,44,14.70
2017,06,26,07,45,14.70
2017,06,26,07,46,14.70
2017,06,26,07,47,14.70
2017,06,26,07,48,14.70
2017,06,26,07,49,14.70
2017,06,26,07,50,14.70
2017,06,26,07,51,14.60
2017,06,26,07,52,14.60
2017,06,26,07,53,14.60
2017,06,26,07,54,14.60
2017,06,26,07,55,14.60
2017,06,26,07,56,14.60
2017,06,26,07,57,14.60
2017,06,26,07,58,14.60
2017,06,26,07,59,14.60
2017,06,26,08,00,14.70
2017,06,26,08,01,14.70
2017,06,26,08,02,14.70
2017,06,26,08,03,14.70
2017,06,26,08,04,14.70
2017,06,26,08,05,14.80
2017,06,26,08,06,14.80
2017,06,26,08,07,14.80
2017,06,26,08,08,14.80
2017,06,26,08,09,14.80
2017,06,26,08,10,14.80
2017,06,26,08,11,14.90
2017,06,26,08,12,15.00
2017,06,26,08,13,15.00
2017,06,26,08,14,15.00
2017,06,26,08,15,15.00
2017,06,26,08,16,15.00
2017,06,26,08,17,15.10
2017,06,26,08,18,15.20
2017,06,26,08,19,15.40
2017,06,26,08,20,15.50
2017,06,26,08,21,15.60
2017,06,26,08,22,15.60
2017,06,26,08,23,15.70
2017,06,26,08,24,15.70
2017,06,26,08,25,15.80
2017,06,26,08,26,15.80
2017,06,26,08,27,15.80
2017,06,26,08,28,15.80
2017,06,26,08,29,15.80
2017,06,26,08,30,15.80
2017,06,26,08,31,15.70
2017,06,26,08,32,15.70
2017,06,26,08,33,15.70
2017,06,26,08,34,15.70
2017,06,26,08,35,15.70
2017,06,26,08,36,15.80
2017,06,26,08,37,15.90
2017,06,26,08,38,15.90
2017,06,26,08,39,16.00
2017,06,26,08,40,16.10
2017,06,26,08,41,16.10
2017,06,26,08,42,16.20
2017,06,26,08,43,16.20
2017,06,26,08,44,16.20
2017,06,26,08,45,16.30
2017,06,26,08,46,16.30
2017,06,26,08,47,16.40
2017,06,26,08,48,16.40
2017,06,26,08,49,16.50
2017,06,26,08,50,16.40
2017,06,26,08,51,16.40
2017,06,26,08,52,16.40
2017,06,26,08,53,16.40
2017,06,26,08,54,16.50
2017,06,26,08,55,16.50
2017,06,26,08,56,16.40
2017,06,26,08,57,16.40
2017,06,26,08,58,16.40
2017,06,26,08,59,16.40
2017,06,26,09,00,16.40
2017,06,26,09,01,16.40
2017,06,26,09,02,16.30
2017,06,26,09,03,16.30
2017,06,26,09,04,16.20
2017,06,26,09,05,16.20
2017,06,26,09,06,16.10
2017,06,26,09,07,16.10
2017,06,26,09,08,16.20
2017,06,26,09,09,16.20
2017,06,26,09,10,16.20
2017,06,26,09,11,16.10
2017,06,26,09,12,16.00
2017,06,26,09,13,16.00
2017,06,26,09,14,16.00
2017,06,26,09,15,16.00
2017,06,26,09,16,15.90
2017,06,26,09,17,15.80
2017,06,26,09,18,15.80
2017,06,26,09,19,15.70
2017,06,26,09,20,15.70
2017,06,26,09,21,15.60
2017,06,26,09,22,15.50
2017,06,26,09,23,15.50
2017,06,26,09,24,15.40
2017,06,26,09,25,15.40
2017,06,26,09,26,15.30
2017,06,26,09,27,15.30
2017,06,26,09,28,15.30
2017,06,26,09,29,15.30
2017,06,26,09,30,15.30
2017,06,26,09,31,15.20
2017,06,26,09,32,15.20
2017,06,26,09,33,15.20
2017,06,26,09,34,15.20
2017,06,26,09,35,15.20
2017,06,26,09,36,15.20
2017,06,26,09,37,15.20
2017,06,26,09,38,15.20
2017,06,26,09,39,15.20
2017,06,26,09,40,15.20
2017,06,26,09,41,15.20
2017,06,26,09,42,15.30
2017,06,26,09,43,15.30
2017,06,26,09,44,15.30
2017,06,26,09,45,15.30
2017,06,26,09,46,15.30
2017,06,26,09,47,15.30
2017,06,26,09,48,15.40
2017,06,26,09,49,15.40
2017,06,26,09,50,15.50
2017,06,26,09,51,15.50
2017,06,26,09,52,15.60
2017,06,26,09,53,15.60
2017,06,26,09,54,15.60
2017,06,26,09,55,15.70
2017,06,26,09,56,15.70
2017,06,26,09,57,15.60
2017,06,26,09,58,15.60
2017,06,26,09,59,15.60
2017,06,26,10,00,15.60
2017,06,26,10,01,15.60
2017,06,26,10,02,15.70
2017,06,26,10,03,15.70
2017,06,26,10,04,15.80
2017,06,26,10,05,15.80
2017,06,26,10,06,15.90
2017,06,26,10,07,16.00
2017,06,26,10,08,16.10
2017,06,26,10,09,16.10
2017,06,26,10,10,16.10
2017,06,26,10,11,16.10
2017,06,26,10,12,16.10
2017,06,26,10,13,16.20
2017,06,26,10,14,16.30
2017,06,26,10,15,16.40
2017,06,26,10,16,16.50
2017,06,26,10,17,16.50
2017,06,26,10,18,16.60
2017,06,26,10,19,16.70
2017,06,26,10,20,16.80
2017,06,26,10,21,16.90
2017,06,26,10,22,17.00
2017,06,26,10,23,17.10
2017,06,26,10,24,17.10
2017,06,26,10,25,17.20
2017,06,26,10,26,17.20
2017,06,26,10,27,17.20
2017,06,26,10,28,17.20
2017,06,26,10,29,17.30
2017,06,26,10,30,17.30
2017,06,26,10,31,17.20
2017,06,26,10,32,17.20
2017,06,26,10,33,17.20
2017,06,26,10,34,17.20
2017,06,26,10,35,17.20
2017,06,26,10,36,17.10
2017,06,26,10,37,17.10
2017,06,26,10,38,17.10
2017,06,26,10,39,17.10
2017,06,26,10,40,17.10
2017,06,26,10,41,17.10
2017,06,26,10,42,17.10
2017,06,26,10,43,17.10
2017,06,26,10,44,17.20
2017,06,26,10,45,17.10
2017,06,26,10,46,17.10
2017,06,26,10,47,17.10
2017,06,26,10,48,17.00
2017,06,26,10,49,16.90
2017,06,26,10,50,16.90
2017,06,26,10,51,16.90
2017,06,26,10,52,16.90
2017,06,26,10,53,17.00
2017,06,26,10,54,17.00
2017,06,26,10,55,17.10
2017,06,26,10,56,17.20
2017,06,26,10,57,17.20
2017,06,26,10,58,17.20
2017,06,26,10,59,17.20
2017,06,26,11,00,17.30
2017,06,26,11,01,17.30
2017,06,26,11,02,17.40
2017,06,26,11,03,17.50
2017,06,26,11,04,17.50
2017,06,26,11,05,17.50
2017,06,26,11,06,17.60
2017,06,26,11,07,17.60
2017,06,26,11,08,17.60
2017,06,26,11,09,17.60
2017,06,26,11,10,17.60
2017,06,26,11,11,17.60
2017,06,26,11,12,17.60
2017,06,26,11,13,17.60
2017,06,26,11,14,17.60
2017,06,26,11,15,17.60
2017,06,26,11,16,17.60
2017,06,26,11,17,17.70
2017,06,26,11,18,17.80
2017,06,26,11,19,17.80
2017,06,26,11,20,17.80
2017,06,26,11,21,17.90
2017,06,26,11,22,18.00
2017,06,26,11,23,18.10
2017,06,26,11,24,18.30
2017,06,26,11,25,18.40
2017,06,26,11,26,18.50
2017,06,26,11,27,18.60
2017,06,26,11,28,18.60
2017,06,26,11,29,18.70
2017,06,26,11,30,18.70
2017,06,26,11,31,18.60
2017,06,26,11,32,18.50
2017,06,26,11,33,18.50
2017,06,26,11,34,18.50
2017,06,26,11,35,18.60
2017,06,26,11,36,18.60
2017,06,26,11,37,18.70
2017,06,26,11,38,18.70
2017,06,26,11,39,18.70
2017,06,26,11,40,18.80
2017,06,26,11,41,18.80
2017,06,26,11,42,18.80
2017,06,26,11,43,18.90
2017,06,26,11,44,18.90
2017,06,26,11,45,18.90
2017,06,26,11,46,18.90
2017,06,26,11,47,18.90
2017,06,26,11,48,18.90
2017,06,26,11,49,19.00
2017,06,26,11,50,19.10
2017,06,26,11,51,19.00
2017,06,26,11,52,19.00
2017,06,26,11,53,18.90
2017,06,26,11,54,18.90
2017,06,26,11,55,18.90
2017,06,26,11,56,18.90
2017,06,26,11,57,18.90
2017,06,26,11,58,18.90
2017,06,26,11,59,18.90
2017,06,26,12,00,18.90
2017,06,26,12,01,18.90
2017,06,26,12,02,19.00
2017,06,26,12,03,19.10
2017,06,26,12,04,19.10
2017,06,26,12,05,19.20
2017,06,26,12,06,19.30
2017,06,26,12,07,19.40
2017,06,26,12,08,19.40
2017,06,26,12,09,19.50
2017,06,26,12,10,19.40
2017,06,26,12,11,19.30
2017,06,26,12,12,19.30
2017,06,26,12,13,19.30
2017,06,26,12,14,19.30
2017,06,26,12,15,19.20
2017,06,26,12,16,19.30
2017,06,26,12,17,19.30
2017,06,26,12,18,19.30
2017,06,26,12,19,19.40
2017,06,26,12,20,19.40
2017,06,26,12,21,19.40
2017,06,26,12,22,19.40
2017,06,26,12,23,19.30
2017,06,26,12,24,19.30
2017,06,26,12,25,19.30
2017,06,26,12,26,19.40
2017,06,26,12,27,19.40
2017,06,26,12,28,19.40
2017,06,26,12,29,19.30
2017,06,26,12,30,19.20
2017,06,26,12,31,19.20
2017,06,26,12,32,19.20
2017,06,26,12,33,19.20
2017,06,26,12,34,19.30
2017,06,26,12,35,19.40
2017,06,26,12,36,19.50
2017,06,26,12,37,19.60
2017,06,26,12,38,19.70
2017,06,26,12,39,19.80
2017,06,26,12,40,19.80
2017,06,26,12,41,19.80
2017,06,26,12,42,19.90
2017,06,26,12,43,19.90
2017,06,26,12,44,20.00
2017,06,26,12,45,20.00
2017,06,26,12,46,19.80
2017,06,26,12,47,19.80
2017,06,26,12,48,19.80
2017,06,26,12,49,19.80
2017,06,26,12,50,19.80
2017,06,26,12,51,19.80
2017,06,26,12,52,19.90
2017,06,26,12,53,19.90
2017,06,26,12,54,20.00
2017,06,26,12,55,20.00
2017,06,26,12,56,20.10
2017,06,26,12,57,20.20
2017,06,26,12,58,20.30
2017,06,26,12,59,20.30
2017,06,26,13,00,20.30
2017,06,26,13,01,20.20
2017,06,26,13,02,20.20
2017,06,26,13,03,20.30
2017,06,26,13,04,20.20
2017,06,26,13,05,20.20
2017,06,26,13,06,20.10
2017,06,26,13,07,20.00
2017,06,26,13,08,20.00
2017,06,26,13,09,20.10
2017,06,26,13,10,20.10
2017,06,26,13,11,20.20
2017,06,26,13,12,20.30
2017,06,26,13,13,20.40
2017,06,26,13,14,20.40
2017,06,26,13,15,20.40
2017,06,26,13,16,20.50
2017,06,26,13,17,20.50
2017,06,26,13,18,20.40
2017,06,26,13,19,20.40
2017,06,26,13,20,20.40
2017,06,26,13,21,20.40
2017,06,26,13,22,20.30
2017,06,26,13,23,20.30
2017,06,26,13,24,20.30
2017,06,26,13,25,20.30
2017,06,26,13,26,20.30
2017,06,26,13,27,20.40
2017,06,26,13,28,20.50
2017,06,26,13,29,20.50
2017,06,26,13,30,20.50
2017,06,26,13,31,20.60
2017,06,26,13,32,20.70
2017,06,26,13,33,20.70
2017,06,26,13,34,20.80
2017,06,26,13,35,20.90
2017,06,26,13,36,20.90
2017,06,26,13,37,21.00
2017,06,26,13,38,21.00
2017,06,26,13,39,21.10
2017,06,26,13,40,21.20
2017,06,26,13,41,21.20
2017,06,26,13,42,21.30
2017,06,26,13,43,21.30
2017,06,26,13,44,21.40
2017,06,26,13,45,21.40
2017,06,26,13,46,21.40
2017,06,26,13,47,21.40
2017,06,26,13,48,21.30
2017,06,26,13,49,21.40
2017,06,26,13,50,21.40
2017,06,26,13,51,21.30
2017,06,26,13,52,21.40
2017,06,26,13,53,21.40
2017,06,26,13,54,21.40
2017,06,26,13,55,21.40
2017,06,26,13,56,21.40
2017,06,26,13,57,21.40
2017,06,26,13,58,21.40
2017,06,26,13,59,21.40
2017,06,26,14,00,21.40
2017,06,26,14,01,21.50
2017,06,26,14,02,21.50
2017,06,26,14,03,21.60
2017,06,26,14,04,21.50
2017,06,26,14,05,21.50
2017,06,26,14,06,21.40
2017,06,26,14,07,21.30
2017,06,26,14,08,21.30
2017,06,26,14,09,21.30
2017,06,26,14,10,21.20
2017,06,26,14,11,21.20
2017,06,26,14,12,21.20
2017,06,26,14,13,21.10
2017,06,26,14,14,21.10
2017,06,26,14,15,21.10
2017,06,26,14,16,21.10
2017,06,26,14,17,21.10
2017,06,26,14,18,21.00
2017,06,26,14,19,21.00
2017,06,26,14,20,21.00
2017,06,26,14,21,21.10
2017,06,26,14,22,21.30
2017,06,26,14,23,21.40
2017,06,26,14,24,21.60
2017,06,26,14,25,21.70
2017,06,26,14,26,21.70
2017,06,26,14,27,21.60
2017,06,26,14,28,21.60
2017,06,26,14,29,21.60
2017,06,26,14,30,21.60
2017,06,26,14,31,21.60
2017,06,26,14,32,21.50
2017,06,26,14,33,21.30
2017,06,26,14,34,21.30
2017,06,26,14,35,21.30
2017,06,26,14,36,21.40
2017,06,26,14,37,21.30
2017,06,26,14,38,21.30
2017,06,26,14,39,21.30
2017,06,26,14,40,21.20
2017,06,26,14,41,21.20
2017,06,26,14,42,21.30
2017,06,26,14,43,21.40
2017,06,26,14,44,21.40
2017,06,26,14,45,21.30
2017,06,26,14,46,21.20
2017,06,26,14,47,21.10
2017,06,26,14,48,21.10
2017,06,26,14,49,21.10
2017,06,26,14,50,21.20
2017,06,26,14,51,21.20
2017,06,26,14,52,21.20
2017,06,26,14,53,21.20
2017,06,26,14,54,21.30
2017,06,26,14,55,21.40
2017,06,26,14,56,21.40
2017,06,26,14,57,21.50
2017,06,26,14,58,21.60
2017,06,26,14,59,21.80
2017,06,26,15,00,21.80
2017,06,26,15,01,21.80
2017,06,26,15,02,21.70
2017,06,26,15,03,21.70
2017,06,26,15,04,21.60
2017,06,26,15,05,21.50
2017,06,26,15,06,21.50
2017,06,26,15,07,21.50
2017,06,26,15,08,21.60
2017,06,26,15,09,21.70
2017,06,26,15,10,21.70
2017,06,26,15,11,21.80
2017,06,26,15,12,21.80
2017,06,26,15,13,22.00
2017,06,26,15,14,22.10
2017,06,26,15,15,22.30
2017,06,26,15,16,22.30
2017,06,26,15,17,22.40
2017,06,26,15,18,22.40
2017,06,26,15,19,22.40
2017,06,26,15,20,22.40
2017,06,26,15,21,22.40
2017,06,26,15,22,22.20
2017,06,26,15,23,22.10
2017,06,26,15,24,22.00
2017,06,26,15,25,21.80
2017,06,26,15,26,21.70
2017,06,26,15,27,21.70
2017,06,26,15,28,21.70
2017,06,26,15,29,21.70
2017,06,26,15,30,21.60
2017,06,26,15,31,21.50
2017,06,26,15,32,21.40
2017,06,26,15,33,21.20
2017,06,26,15,34,21.10
2017,06,26,15,35,21.00
2017,06,26,15,36,21.00
2017,06,26,15,37,21.00
2017,06,26,15,38,21.00
2017,06,26,15,39,21.00
2017,06,26,15,40,21.00
2017,06,26,15,41,21.00
2017,06,26,15,42,21.10
2017,06,26,15,43,21.10
2017,06,26,15,44,21.20
2017,06,26,15,45,21.30
2017,06,26,15,46,21.30
2017,06,26,15,47,21.30
2017,06,26,15,48,21.40
2017,06,26,15,49,21.40
2017,06,26,15,50,21.50
2017,06,26,15,51,21.60
2017,06,26,15,52,21.60
2017,06,26,15,53,21.70
2017,06,26,15,54,21.80
2017,06,26,15,55,22.00
2017,06,26,15,56,22.10
2017,06,26,15,57,22.30
2017,06,26,15,58,22.30
2017,06,26,15,59,22.40
2017,06,26,16,00,22.40
2017,06,26,16,01,22.50
2017,06,26,16,02,22.60
2017,06,26,16,03,22.60
2017,06,26,16,04,22.60
2017,06,26,16,05,22.60
2017,06,26,16,06,22.40
2017,06,26,16,07,22.30
2017,06,26,16,08,22.10
2017,06,26,16,09,22.00
2017,06,26,16,10,21.90
2017,06,26,16,11,22.00
2017,06,26,16,12,22.00
2017,06,26,16,13,22.10
2017,06,26,16,14,22.10
2017,06,26,16,15,22.10
2017,06,26,16,16,22.20
2017,06,26,16,17,22.20
2017,06,26,16,18,22.20
2017,06,26,16,19,22.10
2017,06,26,16,20,22.10
2017,06,26,16,21,22.10
2017,06,26,16,22,22.10
2017,06,26,16,23,22.10
2017,06,26,16,24,22.20
2017,06,26,16,25,22.30
2017,06,26,16,26,22.30
2017,06,26,16,27,22.40
2017,06,26,16,28,22.40
2017,06,26,16,29,22.40
2017,06,26,16,30,22.30
2017,06,26,16,31,22.30
2017,06,26,16,32,22.30
2017,06,26,16,33,22.40
2017,06,26,16,34,22.40
2017,06,26,16,35,22.30
2017,06,26,16,36,22.30
2017,06,26,16,37,22.30
2017,06,26,16,38,22.30
2017,06,26,16,39,22.40
2017,06,26,16,40,22.50
2017,06,26,16,41,22.50
2017,06,26,16,42,22.50
2017,06,26,16,43,22.50
2017,06,26,16,44,22.40
2017,06,26,16,45,22.30
2017,06,26,16,46,22.30
2017,06,26,16,47,22.30
2017,06,26,16,48,22.30
2017,06,26,16,49,22.30
2017,06,26,16,50,22.30
2017,06,26,16,51,22.40
2017,06,26,16,52,22.40
2017,06,26,16,53,22.50
2017,06,26,16,54,22.60
2017,06,26,16,55,22.60
2017,06,26,16,56,22.70
2017,06,26,16,57,22.80
2017,06,26,16,58,22.90
2017,06,26,16,59,23.00
2017,06,26,17,00,23.10
2017,06,26,17,01,23.20
2017,06,26,17,02,23.10
2017,06,26,17,03,23.10
2017,06,26,17,04,23.00
2017,06,26,17,05,23.00
2017,06,26,17,06,22.90
2017,06,26,17,07,22.80
2017,06,26,17,08,22.70
2017,06,26,17,09,22.70
2017,06,26,17,10,22.70
2017,06,26,17,11,22.80
2017,06,26,17,12,22.80
2017,06,26,17,13,22.80
2017,06,26,17,14,22.80
2017,06,26,17,15,22.80
2017,06,26,17,16,22.80
2017,06,26,17,17,22.80
2017,06,26,17,18,22.80
2017,06,26,17,19,22.90